Regional Weather Roundup
Issued by NWS

Home | Current Version | Previous Version | Graphics & Text | Print | Product List | Glossary On
Versions: 1 2 3 4 5 6 7 8 9 10 11 12 13 14 15 16 17 18 19 20 21 22 23 24 25 26 27 28 29 30 31 32 33 34 35 36 37 38 39 40 41 42 43 44 45 46 47 48 49 50
932
ASUS43 KTOP 251759
RWRKS

WEATHER ROUNDUP FOR KANSAS
NATIONAL WEATHER SERVICE GOODLAND KS
100 PM CDT THU AUG 25 2016

NOTE:  "FAIR" INDICATES FEW OR NO CLOUDS BELOW 12,000 FEET WITH NO
SIGNIFICANT WEATHER AND/OR OBSTRUCTIONS TO VISIBILITY.

KSZ001>006-013>018-027>032-041>047-251900-
NORTHWEST KANSAS

CITY           SKY/WX    TMP DP  RH WIND       PRES   REMARKS
GOODLAND       SUNNY     73  49  42 E9G20     30.24F
6HR MIN TEMP:  51; 6HR MAX TEMP:  73;

HAYS           CLOUDY    73  52  46 NE13      30.17F
HILL CITY      CLOUDY    71  56  58 NE6       30.21F
6HR MIN TEMP:  59; 6HR MAX TEMP:  71; 6HR PCP: TRACE;

RUSSELL        PTSUNNY   74  56  53 NE13G20   30.15F
6HR MIN TEMP:  59; 6HR MAX TEMP:  75;

$$

KSZ061>065-074>080-084>089-251900-
SOUTHWEST KANSAS

CITY           SKY/WX    TMP DP  RH WIND       PRES   REMARKS
DODGE CITY     CLOUDY    64  60  87 N12       30.19S
6HR MIN TEMP:  60; 6HR MAX TEMP:  66;

ELKHART          N/A     70  58  66 NE7         N/A
GARDEN CITY    CLOUDY    64  59  83 N8        30.20F
6HR MIN TEMP:  59; 6HR MAX TEMP:  64;

GREAT BEND     CLOUDY    72  55  56 NE12G17   30.16S
LIBERAL        CLOUDY    66  61  82 N9        30.21S
$$

KSZ066>073-081>083-090>101-251900-
SOUTHEAST KANSAS

CITY           SKY/WX    TMP DP  RH WIND       PRES   REMARKS
CHANUTE        MOSUNNY   85  73  67 W7        30.07F
6HR MIN TEMP:  67; 6HR MAX TEMP:  85;

COFFEYVILLE    MOSUNNY   91  66  43 W8        30.06F
6HR MIN TEMP:  69; 6HR MAX TEMP:  92;

HUTCHINSON     CLOUDY    74  65  73 N9        30.13R
6HR MIN TEMP:  66; 6HR MAX TEMP:  76;

MEDICINE LODGE   N/A     77  66  68 N9        30.12F
NEWTON         PTSUNNY   77  69  76 N8        30.12R
PARSONS        MOSUNNY   89  70  53 W6        30.08F
6HR MIN TEMP:  66; 6HR MAX TEMP:  90;

WICHITA INTL   CLOUDY    81  66  60 W6        30.09S
6HR MIN TEMP:  69; 6HR MAX TEMP:  83;

WICHITA JABRA  MOSUNNY   80  67  64 CALM      30.09F
6HR MIN TEMP:  68; 6HR MAX TEMP:  81;

WINFIELD       SUNNY     83  72  69 CALM      30.09F
6HR MIN TEMP:  69; 6HR MAX TEMP:  83;

$$

KSZ007>012-019>026-033>040-048>060-102>105-251900-
NORTHEAST KANSAS

CITY           SKY/WX    TMP DP  RH WIND       PRES   REMARKS
CONCORDIA      MOSUNNY   72  59  63 N8        30.15F
6HR MIN TEMP:  60; 6HR MAX TEMP:  72; 6HR PCP:  0.01;

EMPORIA        MOSUNNY   79  69  71 VRB3      30.09S
6HR MIN TEMP:  68; 6HR MAX TEMP:  79; 6HR PCP: TRACE;

LAWRENCE       MOSUNNY   80  70  71 CALM      30.07F
6HR MIN TEMP:  70; 6HR MAX TEMP:  81;

MANHATTAN      PTSUNNY   76  66  71 NE13G21   30.11S
6HR MIN TEMP:  64; 6HR MAX TEMP:  76; 6HR PCP:  0.58;

OLATHE IND     PTSUNNY   81  70  69 S8        30.08F
6HR MIN TEMP:  69; 6HR MAX TEMP:  81; 6HR PCP:  0.14;

OLATHE EXE     PTSUNNY   80  70  71 SW5       30.08F
6HR MIN TEMP:  68; 6HR MAX TEMP:  81; 6HR PCP:  0.21;

SALINA         CLOUDY    74  63  68 N16       30.13F
6HR MIN TEMP:  65; 6HR MAX TEMP:  74;

TOPEKA BILLARD CLOUDY    78  69  73 NE3       30.08F
6HR MIN TEMP:  70; 6HR MAX TEMP:  79; 6HR PCP:  0.38;

TOPEKA FORBES  CLOUDY    79  70  74 N8        30.08F
6HR MIN TEMP:  72; 6HR MAX TEMP:  81; 6HR PCP:  0.05;

$$




USA.gov is the U.S. government's official web portal to all federal, state and local government web resources and services.